Вернуться в каталог

SJ 16-02 DEB

АктивенLEO
NORAD 43429·DEBRIS·🇨🇳 China

Запущен Jun 29, 2016 с Jiuquan Satellite Launch Center

Loading…

Ближайшие Пролёты (ближайшие 24 часа)

TLE

СвежийSource: Space-Track

Эпоха: Sep 13, 2026, 07:34 UTC

1 43429U 16043D   26256.31555273  .00001556  00000-0  30541-3 0  9991
2 43429  74.9607 251.5325 0191633 119.3281 242.7184 14.52276032534190

Отслеживайте SJ 16-02 DEB в реальном времени с AllMySat

Download on the App Store